Location: ???????????
(54.6970°N, 39.1477°E)
Time: 14:12:34
(UTC+00:00)

Aureole 3 Rocket - Pass Details

Date: 19 May 2025
Orbit: 397 x 1697 km, 82.5° (Epoch: 19 June)

Event Time Altitude Azimuth Distance (km) Brightness Sun altitude
Rises 22:51:47 0° 349° (N) 3,490 7.9 -12.8°
Reaches altitude 10° 22:54:40 10° 354° (N) 2,329 7.0 -12.6°
Maximum altitude 22:59:33 49° 70° (ENE) 794 3.9 -12.3°
Drops below altitude 10° 23:03:11 10° 146° (SSE) 1,730 5.1 -12.1°
Enters shadow 23:04:02 - 150° (SSE) 2,074 5.4 -12.1°
